FW8288 Weather Reports


Display with metric or nautical units.
time (UTC)temp
F
wind
direction
speed
MPH
gust
MPH
rain 1hr
in
rain 24hr
in
rain mn
in
humidity
%
barometer
mb
20260504184605 82 166 2.0 6.0 0.00 0.00 0.00 53 1015.0
20260504183102 84 166 2.0 7.0 0.00 0.00 0.00 50 1014.9
20260504181602 83 166 2.0 6.0 0.00 0.00 0.00 52 1015.1
20260504174559 81 167 3.0 7.0 0.00 0.00 0.00 53 1015.6
20260504173058 79 167 3.0 8.0 0.00 0.00 0.00 57 1015.7
20260504171602 79 166 3.0 7.0 0.00 0.00 0.00 59 1016.0
20260504150105 74 166 2.0 8.0 0.00 0.00 0.00 66 1016.8
20260504110104 58 0 0.0 0.0 0.00 0.00 0.00 85 1016.5
20260504081559 59 0 0.0 0.0 0.00 0.00 0.00 82 1017.2
20260504070106 60 0 0.0 0.0 0.00 0.00 0.00 77 1018.7
20260504044605 63 0 0.0 0.0 0.00 0.00 0.00 68 1019.6
20260504043104 64 0 0.0 0.0 0.00 0.00 0.00 66 1019.7
20260504041556 65 0 0.0 0.0 0.00 0.00 0.00 64 1019.7
20260504040058 65 0 0.0 1.0 0.00 0.00 0.00 64 1019.7
20260504034614 66 0 0.0 0.0 0.00 0.00 0.00 62 1019.6
20260504033056 67 0 0.0 2.0 0.00 0.00 0.00 60 1019.7
20260504031559 67 0 0.0 2.0 0.00 0.00 0.00 59 1019.5
20260504030058 68 0 0.0 3.0 0.00 0.00 0.00 58 1019.4
20260504024559 68 165 0.0 4.0 0.00 0.00 0.00 57 1019.3
20260504023057 68 0 0.0 2.0 0.00 0.00 0.00 56 1019.3
20260504021557 69 0 0.0 4.0 0.00 0.00 0.00 54 1019.3
20260504020059 70 0 0.0 3.0 0.00 0.00 0.00 53 1019.1
20260504014618 71 165 1.0 5.0 0.00 0.00 0.00 52 1019.0
20260504013104 71 165 0.0 3.0 0.00 0.00 0.00 50 1019.0
20260504011603 72 0 1.0 4.0 0.00 0.00 0.00 48 1019.0
20260504010100 73 0 0.0 3.0 0.00 0.00 0.00 47 1018.8
20260504004559 73 165 0.0 4.0 0.00 0.00 0.00 47 1018.8
20260504003101 74 165 1.0 7.0 0.00 0.00 0.00 45 1019.0
20260504001616 75 0 2.0 6.0 0.00 0.00 0.00 44 1018.8
20260504000057 76 165 0.0 4.0 0.00 0.00 0.00 43 1018.8
20260503234600 77 165 2.0 6.0 0.00 0.00 0.00 42 1018.9
20260503233057 78 165 1.0 4.0 0.00 0.00 0.00 39 1018.8
20260503231559 79 165 0.0 5.0 0.00 0.00 0.00 34 1019.1
20260503230100 79 165 1.0 5.0 0.00 0.00 0.00 35 1019.1
20260503224559 80 165 1.0 4.0 0.00 0.00 0.00 32 1019.2
20260503223059 80 165 1.0 4.0 0.00 0.00 0.00 32 1019.4
20260503221558 80 165 2.0 6.0 0.00 0.00 0.00 34 1019.6
20260503220104 80 165 2.0 5.0 0.00 0.00 0.00 33 1019.6
20260503214559 81 165 0.0 5.0 0.00 0.00 0.00 35 1019.7
20260503213111 82 165 0.0 4.0 0.00 0.00 0.00 32 1019.9
20260503211559 82 165 1.0 3.0 0.00 0.00 0.00 34 1020.2
20260503210104 82 165 2.0 4.0 0.00 0.00 0.00 32 1020.3
20260503204557 82 165 1.0 5.0 0.00 0.00 0.00 34 1020.5
20260503203104 82 165 2.0 5.0 0.00 0.00 0.00 31 1020.7
20260503201557 82 165 1.0 5.0 0.00 0.00 0.00 33 1020.9
20260503194600 81 165 1.0 7.0 0.00 0.00 0.00 36 1021.4
20260503193110 81 165 1.0 8.0 0.00 0.00 0.00 33 1021.6
20260503191605 81 165 1.0 4.0 0.00 0.00 0.00 36 1021.8